Tracking 28052 objects as of 21-Sep-2023
HD Live streaming from Space Station
objects crossing your sky now

SKYKRAFT-1B

Track SKYKRAFT-1B now!
10-day predictions


NORAD ID: 55058
Int'l Code: 2023-001BB
Perigee: 511.2 km
Apogee: 529.3 km
Inclination: 97.5 °
Period: 94.9 minutes
Semi major axis: 6891 km
RCS: Unknown
Launch date: January 3, 2023
Source: Australia (AUS)
Launch site: AIR FORCE EASTERN TEST RANGE (AFETR)
Your satellite tracking list
Your tracking list is empty




NASA's NSSDC Master Catalog

Two Line Element Set (TLE):
1 55058U 23001BB  23264.05646389  .00010888  00000-0  54334-3 0  9994
2 55058  97.4675 322.2085 0013139  43.5171 316.7097 15.17609421 39598
Source of the keplerian elements: AFSPC